This demonstration page uses our WeatherBlox Daily Observations layout. Learn more.

Left ArrowRight Arrow

39.01783, -85.05884

Hourly Observations for July 9, 2018

Temp ( °F °C ) Dew Point ( °F °C ) Humidity (%) Winds ( mph kmh ) Pressure ( in mb ) Visibility ( mi km ) Precip ( " mm )
12:52 am 00:52 Clear 76 24.4 64 17.8 67 67 ESE 6 9 30.21 1023 10 16 0.00 0.00
1:52 am 01:52 Clear 73 22.8 64 17.8 74 74 SSE 5 7 30.22 1023 10 16 0.00 0.00
2:52 am 02:52 Clear 72 22.2 64 17.8 76 76 S 3 6 30.22 1023 10 16 0.00 0.00
3:52 am 03:52 Clear 72 22.2 64 17.8 76 76 S 3 6 30.22 1023 10 16 0.00 0.00
4:52 am 04:52 Mostly Clear 69 20.6 64 17.8 84 84 Calm 30.22 1023 10 16 0.00 0.00
5:52 am 05:52 Mostly Cloudy 71 21.7 63 17.2 76 76 Calm 30.22 1023 10 16 0.00 0.00
6:52 am 06:52 Partly Cloudy 71 21.7 63 17.2 76 76 Calm 30.23 1024 10 16 0.00 0.00
7:52 am 07:52 Mostly Sunny 73 22.8 65 18.3 76 76 Calm 30.23 1024 10 16 0.00 0.00
8:52 am 08:52 Mostly Sunny 77 25 64 17.8 64 64 SSW 5 7 30.24 1024 10 16 0.00 0.00
9:52 am 09:52 Mostly Sunny 81 27.2 64 17.8 57 57 SW 5 7 30.23 1024 10 16 0.00 0.00
10:52 am 10:52 Mostly Sunny 85 29.4 65 18.3 51 51 W 6 9 30.23 1024 10 16 0.00 0.00
11:52 am 11:52 Partly Cloudy 87 30.6 67 19.4 51 51 VRB 6 9 30.22 1023 10 16 0.00 0.00
12:52 pm 12:52 Mostly Cloudy 89 31.7 65 18.3 45 45 NNW 7 11 30.21 1023 10 16 0.00 0.00
1:52 pm 13:52 Mostly Cloudy 87 30.6 65 18.3 48 48 Calm 30.19 1023 10 16 0.00 0.00
2:52 pm 14:52 Partly Cloudy 90 32.2 66 18.9 45 45 VRB 6 9 30.17 1022 10 16 0.00 0.00
3:52 pm 15:52 Mostly Sunny 92 33.3 64 17.8 40 40 W 8 13 30.16 1021 10 16 0.00 0.00
4:52 pm 16:52 Partly Cloudy 91 32.8 65 18.3 42 42 WNW 8 13 30.15 1021 10 16 0.00 0.00
5:52 pm 17:52 Mostly Sunny 91 32.8 65 18.3 42 42 NW 12 19 30.14 1021 10 16 0.00 0.00
6:52 pm 18:52 Mostly Sunny 90 32.2 64 17.8 42 42 NNW 10 17 30.13 1020 10 16 0.00 0.00
7:52 pm 19:52 Mostly Sunny 88 31.1 64 17.8 45 45 VRB 5 7 30.13 1020 10 16 0.00 0.00
8:52 pm 20:52 Mostly Sunny 84 28.9 66 18.9 55 55 W 3 6 30.12 1020 10 16 0.00 0.00
9:52 pm 21:52 Mostly Clear 81 27.2 67 19.4 62 62 Calm 30.13 1020 10 16 0.00 0.00
10:52 pm 22:52 Mostly Clear 74 23.3 67 19.4 79 79 Calm 30.13 1020 10 16 0.00 0.00
11:52 pm 23:52 Clear 74 23.3 67 19.4 79 79 Calm 30.13 1020 10 16 0.00 0.00

Powered by AerisWeather